Temp
77 76 74 74 72 72 72 73 71 73 73 73 74 72 70 71 70 69 67 69 69 67 68 68 69 69 65 64 65 64 64 62 57 58 60 60 60 60 61 61 63 62 60
78 75 75 73 71 71 72 71 73 73 74 75 75 74 71 71 69 67 69 70 70 68 69 67 69 68 64 65 64 64 61 62 59 57 58 58 59 60 60 61 62 62 61
78 74 71 72 70 71 70 71 74 73 74 76 73 71 71 71 67 65 67 69 68 68 66 68 67 66 64 64 64 62 62 63 62 58 57 59 59 60 60 60 60 61 62
79 74 72 70 71 71 71 70 74 75 75 73 71 72 72 72 70 68 68 67 62 65 65 67 67 66 65 64 63 63 61 60 60 59 58 57 58 60 61 59 58 60 60
80 74 73 71 71 71 72 72 73 75 73 74 72 70 71 71 68 66 66 63 64 62 62 63 62 63 63 62 62 61 61 60 59 58 57 58 58 58 58 59 58 60 59
80 78 78 77 76 72 70 71 71 72 71 72 71 71 70 69 51 56 62 64 64 64 61 65 64 60 59 56 57 57 61 61 59 59 58 58 58 58 58 60 60 58 55
80 80 79 78 76 74 72 71 69 69 69 70 69 69 67 64 49 49 55 65 65 65 63 63 64 63 62 61 54 54 54 54 58 62 59 59 60 61 62 60 59 59 59
80 80 80 79 77 73 71 69 68 69 69 67 69 70 67 62 49 48 51 68 67 66 65 64 64 64 63 64 63 62 61 61 61 62 62 62 63 65 64 64 62 61 63
81 80 81 77 75 75 71 69 68 68 68 67 69 70 66 64 49 47 57 67 66 66 66 67 65 64 51 53 63 60 59 58 54 53 54 54 53 56 62 65 62 62 59
82 82 83 80 75 72 72 69 69 69 67 68 69 69 61 64 48 47 53 67 65 64 65 62 52 60 50 53 63 61 58 59 60 60 60 59 57 58 52 64 66 62 60
85 84 83 79 76 75 73 72 70 67 68 68 67 68 67 65 57 47 48 66 66 65 66 64 58 48 47 50 55 63 61 62 57 62 62 62 63 64 64 66 66 65 64
85 84 81 77 79 77 73 73 74 68 66 66 66 65 67 67 55 48 48 53 57 67 67 65 55 49 49 50 57 47 49 57 64 63 63 62 63 65 65 66 66 66 68
82 80 78 78 78 76 73 72 73 71 67 66 67 68 67 67 64 49 49 52 54 65 68 53 45 47 46 50 47 49 50 66 65 64 64 64 66 65 65 65 65 65 64
80 78 78 77 76 76 77 75 74 72 69 71 71 70 68 67 66 67 65 62 55 59 53 55 55 55 55 56 55 55 69 70 68 67 67 68 68 66 65 66 62 62 59
79 78 77 78 76 75 76 74 77 74 69 72 73 73 68 68 68 63 64 69 67 63 64 65 65 65 64 64 66 68 68 68 70 70 69 68 69 69 66 66 63 61 58
77 79 78 79 77 78 76 71 44 51 49 48 50 67 73 60 51 51 52 52 49 50 66 66 66 68 67 67 67 68 71 68 69 69 68 68 69 68 67 66 64 61 59
77 77 80 75 78 78 77 76 71 59 47 48 51 55 56 56 49 47 46 47 49 50 69 68 69 70 71 71 71 71 70 71 71 72 71 68 68 68 61 66 66 65 62
79 63 80 80 81 80 79 79 78 73 71 68 52 57 50 47 46 45 45 51 62 59 70 72 72 72 72 73 73 73 72 71 70 70 70 70 68 69 66 67 67 64 62
81 81 81 81 82 78 81 81 81 77 75 75 66 57 46 42 42 43 46 70 68 68 70 72 75 75 75 74 73 74 73 73 72 70 69 69 69 68 67 68 67 56 57
82 69 71 82 82 82 82 82 82 80 76 76 73 70 62 57 61 62 62 69 71 72 72 72 74 75 76 76 74 74 74 68 70 71 71 69 69 71 70 68 67 64 62
86 82 68 82 84 83 83 82 82 82 81 78 78 73 53 68 68 68 67 69 71 75 74 74 76 76 77 76 76 75 73 71 71 71 72 71 70 70 69 69 66 66 62
88 86 82 83 83 85 83 83 83 83 83 82 81 72 47 71 73 73 71 71 73 74 76 76 77 78 78 78 77 76 75 74 73 72 71 72 71 70 68 67 66 63 59
88 88 85 83 83 74 78 84 84 83 83 83 84 76 68 72 75 75 75 74 73 74 76 77 76 78 80 79 79 77 76 77 76 75 73 72 72 70 69 67 66 62 59
86 89 87 85 83 84 84 82 83 71 83 85 82 80 73 74 76 76 77 78 78 77 77 77 78 79 79 78 78 80 80 78 77 76 75 73 72 64 70 67 67 61 57
81 85 88 86 84 82 83 84 83 82 84 84 83 83 76 77 78 79 80 80 80 80 78 79 79 79 79 78 79 80 69 47 70 65 74 73 71 69 70 70 64 59 51
80 83 86 88 85 84 82 83 83 82 83 84 84 84 84 80 80 80 80 80 80 81 80 81 80 79 79 80 79 66 46 43 52 47 73 71 69 69 69 67 61 59 49
MSLP
1002.25 1002.71 1003.20 1003.58 1004.17 1004.50 1004.80 1004.97 1005.37 1005.52 1005.65 1005.84 1005.91 1005.88 1005.95 1006.07 1006.20 1006.28 1006.39 1006.41 1006.56 1006.75 1006.61 1006.72 1006.60 1006.66 1007.15 1007.25 1007.31 1007.92 1008.61 1009.28 1010.48 1012.06 1012.46 1013.19 1013.36 1013.87 1014.84 1015.05 1016.00 1017.12 1018.21
1002.11 1002.79 1003.34 1003.75 1004.13 1004.73 1005.00 1005.13 1005.35 1005.62 1005.68 1005.64 1005.69 1005.59 1005.88 1006.15 1006.35 1006.43 1006.50 1006.25 1006.32 1006.59 1006.52 1006.56 1006.61 1006.84 1007.30 1007.45 1007.72 1008.49 1009.21 1010.23 1010.57 1012.03 1013.25 1013.75 1014.26 1014.94 1015.41 1015.91 1017.00 1017.93 1018.77
1001.96 1002.68 1003.34 1003.76 1004.24 1004.73 1005.05 1005.20 1005.31 1005.53 1005.64 1005.53 1005.60 1006.01 1006.14 1006.37 1006.72 1006.98 1006.80 1006.45 1006.48 1006.45 1006.65 1006.53 1006.71 1006.91 1007.39 1007.99 1008.35 1009.09 1009.98 1010.90 1011.69 1012.26 1013.73 1014.67 1015.40 1015.81 1016.20 1017.02 1017.87 1018.56 1019.17
1001.76 1002.48 1003.22 1003.70 1004.13 1004.60 1004.97 1005.24 1005.22 1005.40 1005.48 1005.59 1005.91 1005.95 1006.32 1006.56 1006.76 1007.07 1007.06 1007.03 1007.14 1006.94 1006.98 1006.46 1006.71 1007.01 1007.86 1008.41 1008.87 1009.61 1010.41 1011.28 1012.25 1013.02 1013.64 1015.12 1015.44 1016.42 1016.75 1017.44 1018.50 1019.25 1019.97
1001.41 1002.39 1003.01 1003.56 1004.01 1004.38 1004.64 1004.83 1005.01 1005.20 1005.50 1005.81 1005.92 1006.39 1006.59 1006.88 1007.39 1007.36 1007.36 1007.45 1007.56 1007.63 1007.74 1007.60 1007.67 1007.72 1008.29 1008.77 1009.27 1010.13 1010.88 1011.62 1012.57 1013.38 1014.26 1015.21 1015.85 1016.68 1017.30 1018.11 1018.64 1019.43 1020.31
1001.40 1002.19 1002.81 1003.34 1003.86 1004.32 1004.76 1005.00 1005.17 1005.48 1005.64 1005.84 1006.21 1006.30 1006.82 1007.58 1008.06 1007.97 1007.78 1007.77 1007.96 1008.09 1008.17 1008.08 1008.31 1008.56 1009.03 1009.65 1010.26 1010.91 1011.23 1011.74 1012.87 1013.56 1014.61 1015.24 1016.08 1016.86 1017.64 1018.09 1018.64 1019.52 1020.44
1001.41 1002.11 1002.77 1003.33 1003.82 1004.37 1004.81 1005.13 1005.42 1005.63 1005.83 1006.02 1006.33 1006.76 1007.47 1008.12 1008.17 1008.33 1008.24 1008.04 1008.03 1008.32 1008.51 1008.73 1008.96 1009.53 1009.93 1010.49 1011.31 1011.93 1012.39 1012.92 1013.12 1013.57 1014.59 1015.42 1016.18 1016.76 1017.26 1018.11 1018.73 1019.12 1019.57
1001.35 1001.96 1002.68 1003.15 1003.81 1004.37 1004.81 1005.28 1005.63 1005.83 1006.02 1006.24 1006.56 1006.91 1007.55 1008.48 1008.51 1008.51 1008.46 1008.20 1008.26 1008.50 1008.73 1009.06 1009.41 1009.92 1010.50 1011.04 1011.85 1012.61 1013.33 1013.84 1014.10 1014.50 1015.01 1015.64 1015.98 1016.59 1017.20 1017.65 1018.22 1018.81 1019.58
1001.19 1001.83 1002.26 1003.03 1003.76 1004.26 1004.90 1005.42 1005.80 1006.06 1006.27 1006.53 1006.77 1007.15 1007.75 1008.65 1008.85 1008.83 1008.52 1008.51 1008.68 1008.96 1009.20 1009.56 1009.93 1010.40 1010.92 1011.43 1012.13 1012.99 1013.85 1014.72 1015.06 1015.25 1015.59 1015.83 1016.31 1016.71 1016.97 1017.62 1018.23 1018.78 1019.51
1000.93 1001.55 1001.94 1002.76 1003.62 1004.20 1004.81 1005.46 1005.73 1005.93 1006.20 1006.54 1006.86 1007.31 1008.00 1008.87 1009.25 1009.12 1008.97 1008.87 1009.15 1009.49 1009.87 1010.35 1010.69 1011.12 1011.55 1012.04 1012.60 1013.29 1014.17 1014.91 1015.37 1016.08 1016.34 1016.29 1016.71 1017.02 1017.66 1017.34 1017.87 1018.49 1019.15
1000.76 1001.34 1001.85 1002.60 1003.39 1004.17 1004.82 1005.32 1005.67 1006.02 1006.54 1006.72 1007.10 1007.59 1008.23 1008.91 1009.59 1009.47 1009.16 1009.06 1009.26 1009.70 1010.27 1010.89 1011.58 1011.64 1011.96 1012.36 1012.82 1013.34 1013.92 1014.73 1015.60 1016.13 1016.49 1016.69 1016.94 1017.20 1017.23 1017.19 1017.37 1017.82 1018.34
1000.64 1001.20 1001.84 1002.67 1003.41 1004.29 1004.94 1005.32 1005.58 1006.22 1006.67 1007.09 1007.48 1007.97 1008.43 1009.04 1009.54 1009.65 1009.68 1009.61 1009.70 1009.86 1010.36 1011.12 1011.78 1011.89 1012.29 1012.80 1013.17 1013.62 1014.27 1014.99 1015.76 1016.29 1016.69 1017.01 1017.11 1017.10 1017.08 1016.98 1017.32 1017.44 1017.39
1000.57 1001.24 1002.02 1002.71 1003.32 1004.11 1004.82 1005.33 1005.68 1006.18 1006.66 1007.06 1007.39 1007.74 1008.38 1009.11 1009.67 1009.82 1009.86 1009.84 1009.82 1010.16 1010.74 1011.45 1011.89 1012.23 1012.63 1013.06 1013.42 1013.93 1014.53 1014.94 1015.47 1015.97 1016.25 1016.43 1016.48 1016.56 1016.66 1017.07 1017.33 1017.56 1017.51
1000.54 1001.29 1002.05 1002.75 1003.28 1003.92 1004.73 1005.28 1005.53 1005.73 1006.24 1006.36 1006.81 1007.25 1008.00 1008.82 1009.46 1009.78 1010.05 1010.19 1010.31 1010.84 1011.35 1011.91 1012.12 1012.34 1012.53 1012.91 1013.67 1014.00 1014.01 1014.26 1014.66 1015.01 1015.37 1015.59 1015.93 1016.32 1016.66 1017.23 1017.67 1017.98 1018.37
1000.47 1001.25 1001.95 1002.61 1003.16 1003.72 1004.47 1005.24 1005.23 1005.23 1005.58 1005.91 1006.24 1006.67 1007.50 1008.21 1008.91 1009.39 1009.72 1010.03 1010.47 1010.87 1011.39 1011.90 1012.07 1012.28 1012.70 1013.09 1013.28 1013.50 1013.51 1013.51 1013.81 1014.05 1014.48 1014.96 1015.44 1015.88 1016.38 1016.75 1017.40 1017.96 1018.37
1000.35 1001.08 1001.73 1002.30 1003.00 1003.51 1004.21 1005.24 1005.46 1005.55 1005.62 1005.97 1006.22 1006.23 1006.77 1007.27 1008.36 1009.18 1009.63 1009.87 1010.25 1010.79 1011.24 1011.49 1011.56 1011.77 1012.21 1012.43 1012.60 1012.75 1012.71 1012.61 1012.94 1013.36 1013.78 1014.25 1014.75 1015.33 1015.92 1016.44 1016.94 1017.59 1018.03
1000.05 1000.71 1001.33 1001.79 1002.40 1002.81 1003.46 1004.20 1005.31 1006.42 1006.34 1005.90 1006.16 1006.36 1006.72 1007.70 1008.29 1009.08 1009.60 1009.83 1010.16 1010.54 1010.78 1010.95 1010.97 1010.96 1011.24 1011.57 1011.70 1011.66 1011.79 1011.95 1012.16 1012.69 1012.99 1013.62 1014.17 1014.75 1015.27 1015.85 1016.32 1016.79 1017.38
999.59 1000.16 1000.78 1001.37 1001.54 1002.17 1002.59 1003.10 1003.84 1005.01 1005.91 1006.64 1006.87 1006.87 1007.34 1007.77 1008.42 1008.91 1009.47 1010.01 1010.70 1010.72 1010.30 1010.14 1010.22 1010.28 1010.27 1010.46 1010.74 1011.02 1011.28 1011.55 1011.70 1011.82 1012.26 1012.69 1013.22 1013.85 1014.42 1014.92 1015.25 1015.81 1016.51
999.05 999.65 1000.21 1000.62 1000.85 1001.28 1001.62 1002.19 1002.63 1003.51 1004.50 1005.43 1006.80 1007.56 1008.32 1008.66 1009.02 1009.10 1009.15 1009.41 1009.74 1009.84 1009.70 1009.41 1009.17 1009.28 1009.48 1009.63 1009.85 1010.10 1010.42 1010.76 1011.13 1011.60 1011.87 1012.18 1012.69 1013.15 1013.49 1013.84 1014.48 1015.10 1015.69
998.38 999.09 999.67 999.94 1000.32 1000.49 1000.89 1001.16 1001.59 1002.13 1003.16 1003.93 1005.18 1006.51 1007.87 1008.70 1009.19 1009.32 1009.25 1008.84 1008.74 1008.80 1008.81 1008.74 1008.46 1008.27 1008.45 1008.78 1009.08 1009.32 1009.65 1010.10 1010.46 1010.80 1011.15 1011.53 1011.88 1012.19 1012.64 1012.99 1013.55 1014.12 1014.74
997.47 998.35 998.94 999.38 999.30 999.78 1000.01 1000.31 1000.67 1001.08 1001.65 1002.53 1003.36 1004.82 1005.96 1007.06 1007.43 1007.65 1007.88 1007.92 1007.77 1007.53 1007.57 1007.72 1007.78 1007.71 1007.67 1007.78 1008.14 1008.46 1008.80 1009.13 1009.35 1009.67 1010.08 1010.61 1010.99 1011.29 1011.57 1011.93 1012.62 1013.26 1014.03
996.06 996.87 997.90 998.37 998.77 998.68 999.07 999.57 999.88 1000.19 1000.59 1001.04 1001.92 1003.16 1004.75 1005.37 1005.52 1005.76 1006.05 1006.38 1006.57 1006.70 1006.60 1006.57 1006.76 1006.88 1006.97 1007.03 1007.02 1007.36 1007.77 1008.20 1008.57 1008.93 1009.31 1009.63 1010.06 1010.55 1010.95 1011.51 1012.08 1012.76 1013.76
995.01 995.43 996.32 997.18 997.72 998.11 998.19 998.51 999.00 999.38 999.75 1000.11 1000.57 1001.71 1003.18 1003.72 1003.84 1004.06 1004.33 1004.67 1005.17 1005.42 1005.72 1005.93 1005.87 1005.67 1005.75 1005.93 1006.15 1006.25 1006.47 1006.68 1006.94 1007.42 1008.02 1008.62 1009.11 1009.58 1010.12 1010.80 1011.41 1012.28 1013.35
994.92 994.40 994.89 995.73 996.56 997.08 997.27 997.59 997.92 998.38 998.80 999.19 999.65 1000.23 1001.34 1002.03 1002.38 1002.60 1002.74 1003.02 1003.46 1003.90 1004.26 1004.40 1004.59 1004.75 1004.78 1004.78 1004.88 1004.88 1005.17 1005.58 1005.99 1006.50 1006.96 1007.49 1008.01 1008.66 1009.23 1009.76 1010.50 1011.38 1012.77
995.28 994.40 993.76 994.25 995.21 995.96 996.25 996.51 997.00 997.34 997.66 998.08 998.43 998.92 999.88 1000.32 1000.69 1000.88 1000.96 1001.30 1001.66 1002.04 1002.42 1002.84 1003.10 1003.33 1003.53 1003.78 1003.84 1004.04 1004.09 1004.50 1004.78 1005.22 1005.73 1006.29 1006.82 1007.36 1007.85 1008.49 1009.50 1010.80 1012.34
995.27 994.33 993.78 993.33 993.72 994.54 995.27 995.45 995.69 996.24 996.53 996.82 997.17 997.51 997.96 998.59 998.99 999.33 999.66 1000.04 1000.33 1000.59 1000.82 1001.16 1001.54 1001.88 1002.08 1002.39 1002.66 1003.00 1003.36 1003.77 1004.21 1004.36 1004.59 1005.32 1005.91 1006.43 1006.82 1007.55 1008.70 1010.07 1011.69
Wind_Speed
9 7 8 5 6 5 4 4 6 3 5 4 4 5 6 3 3 2 3 4 4 2 1 2 4 2 3 3 2 4 7 10 11 6 6 7 15 17 13 16 14 11 10
9 10 8 5 6 5 4 3 6 4 4 4 3 5 6 5 5 6 3 1 1 4 5 5 3 5 5 5 4 9 10 11 14 16 10 9 11 14 13 15 11 8 9
12 10 7 5 7 5 5 5 5 5 5 2 1 6 6 6 5 3 4 2 4 5 5 4 3 7 8 7 8 11 11 11 12 14 12 8 7 10 10 11 11 9 9
14 10 9 7 6 6 6 6 5 5 4 1 3 6 6 5 4 5 0 4 4 4 5 2 4 9 11 10 10 12 12 12 11 11 12 10 5 9 9 12 10 8 9
9 9 8 8 7 6 6 6 6 4 5 3 4 7 6 6 7 6 3 3 7 8 7 7 6 8 12 11 10 11 14 12 11 11 11 7 11 9 10 8 9 8 6
8 10 8 7 8 7 6 5 6 6 5 4 5 4 6 7 6 9 5 3 4 6 4 6 9 13 15 15 16 11 11 16 13 10 10 11 9 10 8 10 10 9 6
9 9 9 8 9 9 7 6 5 5 4 3 5 7 9 5 7 8 9 4 4 6 5 7 8 8 12 13 16 16 15 13 10 14 13 12 13 12 11 9 8 6 6
10 10 10 10 8 6 6 6 6 4 3 5 6 6 9 4 6 8 9 5 6 6 8 8 8 12 13 15 15 14 12 10 9 8 10 9 6 10 8 9 7 6 8
11 11 10 11 9 8 7 7 5 5 4 4 5 5 10 4 4 9 7 5 7 8 8 9 10 12 12 15 15 14 13 10 10 12 9 8 9 12 9 6 6 9 6
11 11 10 13 12 7 8 9 5 4 4 4 6 5 11 6 4 8 7 3 7 7 8 9 12 11 12 14 15 14 14 11 12 9 2 2 4 2 4 6 7 8 5
11 10 9 10 10 9 6 5 6 5 5 5 8 6 10 7 4 5 8 4 6 8 8 7 5 9 12 14 13 13 15 14 10 9 5 1 2 4 4 4 4 6 7
12 11 11 10 10 9 7 4 4 8 7 6 7 7 7 7 6 5 8 6 1 9 9 7 4 9 12 12 10 14 15 14 9 8 7 4 4 6 4 4 5 4 3
10 9 11 9 8 11 8 5 5 5 6 7 6 7 7 6 4 5 6 6 7 7 8 8 10 11 12 8 15 18 16 10 8 8 9 7 6 5 4 6 5 6 6
9 10 11 9 9 10 7 5 6 5 6 6 7 7 8 7 5 4 4 6 10 10 11 6 4 6 3 9 8 10 10 10 10 10 9 8 7 5 4 6 4 3 4
9 9 9 8 6 8 6 4 5 1 3 8 7 8 9 8 8 9 7 7 7 9 9 5 4 5 6 5 5 8 6 4 8 7 7 8 6 7 5 5 4 4 4
10 9 9 8 7 8 6 5 11 9 11 13 9 8 5 14 18 14 10 9 15 15 7 6 4 7 8 7 8 8 9 7 5 5 6 6 7 7 6 5 4 5 5
11 10 9 8 10 8 8 8 6 4 8 11 11 12 14 15 18 16 12 13 17 12 6 7 6 6 8 9 8 5 4 4 4 7 7 6 6 7 7 8 7 7 5
12 13 9 9 9 9 9 8 9 8 6 4 6 4 13 17 16 15 15 11 5 3 6 8 8 8 6 7 7 7 5 6 5 5 7 8 7 8 7 8 9 7 6
12 10 11 10 9 11 8 10 9 11 10 8 7 6 6 10 8 8 15 8 8 8 7 8 7 9 9 7 6 7 6 8 9 6 4 6 6 5 6 8 7 10 9
12 14 11 8 10 8 9 9 9 9 11 11 11 9 8 7 7 7 8 8 9 9 9 9 7 5 7 8 6 7 8 7 8 9 8 5 6 8 8 8 9 6 7
11 12 11 12 9 10 10 9 9 9 9 11 11 14 16 12 10 10 10 10 10 9 10 10 9 9 6 7 8 7 6 5 5 7 8 8 7 7 7 7 6 7 6
13 12 13 12 12 10 10 10 9 10 10 10 10 12 19 13 13 13 13 12 12 11 9 7 10 10 9 8 7 9 9 9 8 7 7 7 8 6 5 5 5 4 7
13 14 14 14 13 12 8 11 10 10 10 10 10 10 13 14 13 14 13 13 12 12 12 11 9 8 9 10 10 7 8 10 9 8 8 9 8 7 7 6 6 5 10
9 15 15 14 14 14 11 12 12 13 13 11 10 9 14 14 13 15 13 12 13 14 13 12 13 15 10 9 7 9 10 7 6 7 11 8 8 8 8 6 6 8 11
10 10 13 13 15 14 14 11 13 12 13 12 11 11 12 15 15 14 12 12 12 13 15 14 12 15 19 17 13 14 10 12 10 10 7 9 9 10 9 9 6 11 12
11 12 10 12 12 14 15 13 13 14 13 13 13 11 13 14 15 14 13 13 12 11 12 12 15 19 16 15 18 15 11 11 10 12 10 7 7 7 7 7 17 13 17
Wind_Direction
153 133 127 122 119 143 149 137 121 122 118 191 209 201 210 188 97 203 214 228 202 271 215 256 252 131 95 51 115 128 105 112 110 98 97 90 108 112 110 109 116 113 117
158 138 143 130 139 130 145 148 133 170 189 224 199 247 86 64 50 13 303 299 108 220 227 223 226 111 139 135 108 102 112 121 121 112 99 97 102 109 111 111 114 115 118
137 139 141 148 116 143 153 154 156 160 216 259 253 92 87 81 93 93 353 356 20 349 358 320 177 148 124 102 96 112 116 122 118 129 114 100 120 122 105 104 108 108 103
142 146 142 140 129 145 151 175 179 169 178 106 99 104 94 92 138 123 179 50 22 42 329 60 134 136 112 112 104 115 120 121 122 128 113 130 144 121 113 119 127 121 134
137 129 140 135 150 162 157 168 160 164 131 137 103 122 149 79 47 43 78 69 58 63 44 50 47 101 110 106 117 118 127 120 120 121 122 137 121 128 121 122 119 122 104
135 128 138 143 141 110 113 102 86 107 122 131 122 104 82 81 59 56 11 129 113 99 76 69 80 92 95 100 97 86 111 132 132 123 132 122 115 123 133 137 133 137 134
140 141 140 144 134 139 147 136 137 161 157 161 137 105 99 90 35 42 21 150 121 114 108 89 88 101 110 107 93 88 81 71 105 133 126 132 138 147 144 138 145 152 134
145 145 151 150 141 126 122 129 117 105 113 128 124 121 105 83 22 13 2 101 105 105 96 96 105 118 127 124 121 113 105 100 105 115 128 136 127 139 141 151 139 127 127
156 152 169 130 140 147 142 123 136 144 154 125 133 134 105 106 29 21 359 91 98 106 104 108 108 108 114 123 121 112 109 98 78 91 103 109 128 136 158 146 139 139 145
158 162 162 145 151 155 134 134 156 162 154 167 135 121 114 119 63 24 11 93 102 102 83 85 78 114 113 120 127 127 128 139 134 133 94 50 84 210 241 161 160 150 149
155 162 148 131 113 110 106 136 162 128 118 119 121 126 121 128 96 35 9 116 113 113 112 103 94 106 126 129 137 144 149 149 134 156 164 154 208 224 216 209 143 151 169
155 161 136 132 139 133 134 156 127 122 119 115 117 116 117 114 106 61 80 74 76 126 124 111 115 117 115 123 133 127 130 135 152 162 180 194 186 197 210 173 119 90 181
159 151 136 153 135 136 141 158 125 131 145 147 149 139 134 124 116 99 74 93 61 112 109 105 115 113 117 114 134 146 150 155 163 169 185 189 197 184 181 97 87 74 60
156 149 147 162 147 144 151 179 152 189 167 163 156 145 139 139 148 149 126 102 90 96 112 112 129 118 124 119 140 166 175 169 174 178 185 182 171 176 153 136 139 130 88
155 153 154 164 174 150 171 184 175 179 124 171 164 151 150 156 162 157 159 143 135 136 132 138 162 126 126 150 169 184 212 228 178 182 172 172 168 156 161 148 142 154 144
159 163 168 176 184 165 170 141 38 67 107 97 92 170 159 144 141 152 168 145 134 150 147 166 180 158 159 177 188 204 219 199 165 165 145 149 159 170 168 158 158 172 162
169 168 177 199 173 186 189 170 148 73 42 87 89 99 131 147 143 145 147 152 159 154 176 184 192 196 176 184 197 201 157 186 172 175 162 162 164 184 168 175 187 183 177
173 171 188 198 181 201 186 198 173 160 169 140 24 100 139 149 150 145 143 129 153 219 224 189 193 205 210 187 192 190 183 177 203 205 172 179 183 182 174 183 193 189 187
174 181 193 185 215 185 201 193 197 172 177 177 124 90 79 82 91 138 161 175 184 201 219 237 213 197 203 204 197 197 187 190 192 204 196 179 181 179 187 198 192 193 184
179 193 191 214 200 202 199 198 203 188 178 183 168 164 150 146 171 182 199 204 201 199 209 225 245 220 201 200 203 202 202 197 189 194 201 189 187 197 205 201 198 188 193
186 184 200 203 211 208 198 211 201 202 192 188 188 172 167 177 185 190 191 206 218 218 207 210 221 238 246 200 201 205 208 205 197 193 197 199 199 207 207 209 191 196 160
186 188 190 206 218 208 204 201 208 206 209 199 190 166 167 190 192 194 199 204 212 223 236 220 212 216 227 238 207 200 205 206 209 206 204 199 204 211 205 201 201 176 148
196 189 189 197 206 231 195 200 206 206 212 212 201 156 182 193 200 202 204 204 204 211 216 231 243 229 215 212 221 223 210 211 208 198 199 204 207 203 204 207 198 175 165
285 205 195 191 198 207 226 202 202 207 208 214 205 176 183 195 201 205 208 207 208 207 214 214 218 227 236 220 217 210 215 213 204 203 197 201 203 188 204 207 198 156 163
286 288 207 200 194 202 212 212 204 208 208 212 213 204 181 192 200 211 204 204 208 209 205 209 214 217 221 230 223 224 221 200 197 198 196 199 200 194 198 205 168 149 134
296 286 274 215 196 195 206 215 206 207 213 210 214 211 204 193 202 208 206 210 215 224 212 208 210 213 213 216 225 234 215 197 204 203 197 191 188 202 204 181 151 156 147